Погода в Карши

Погода в Карши : погода сейчас, прогноз погоды и архив. Всё, что Вы хотите узнать о погоде в Карши!

Хотите узнать прогноз погоды в Карши? Тогда Вам сюда: Погода в Карши

Поиск расширенной информации на нашем сайте:

Другие новости

Новости СМИ2

Главная страница сайта

Новости сайта

03.07.2017

Напоминаем, что на нашем специализированном сайте Метеоцентр.Азия вы можете получить высокодетализированные автоматические прогнозы погоды по пунктам России, СНГ и мира в авиационном формате (включающие направление и скорость ветра, видимость, явления погоды, количество и форму облачности, нижнюю и верхнюю границу облачности).


Погода в Карши - сегодня

Время (UTC), дата Ветер
(°,м/с) 
Видим.   Явления Облачность Т
(°С)
Тd
(°С)
f(%) Тe
(°С)
Pmin
(гПа)
dP
(гПа)
Po
(мм)
O2
(г/м3)
Тmin Tmax R s Состояние
почвы
21 19.11.17 070 (В) 4000 м  дымка  ясно 
+3.4 +0.5 81 +2  1026.8  -0.4  735  293           
00 20.11.17 070 (В) 10 км  дымка  ясно 
+2 -2 75 +1  1026.4  -0.7  735  294           
03 20.11.17 070 (В) 4000 м  дымка  ясно 
+1.6 -1.5 80 -1  1026.8  7.9  758  304           
06 20.11.17 нст () 10 км    ясно 
+11.1 +1.9 53 +12  1025.1  735  284  +1.6         
09 20.11.17 нст () 10 км    ясно 
+17.1 -0.7 30 +19  1022.1  -2  734  278           
12 20.11.17 350 (С) 10 км    ясно 
+16.7 -4.1 24 +18  1021.6  -0.7  733  279           
15 20.11.17 020 (С) 10 км    ясно 
+10 -1.7 44 +11  1023.2  0.5  734  285    +18.2       
18 20.11.17 080 (В) 10 км    ясно 
+5.8 -1.8 58 +6  1023.3  -0.5  733  289    +18.2       
21 20.11.17 070 (В) 10 км    ясно 
+3.2 -2.9 64 +2  1023.6  -0.1  733  292           
00 21.11.17 060 (СВ) 10 км    4/0 верхняя 
[Ci fib]
+2.2 -3.5 66 1022.4  -1.2  732  293           
03 21.11.17 080 (В) 10 км    ясно 
+1.8 -3.6 67 1022.5  0.5  758  304           
06 21.11.17 нст () 10 км    3/0 верхняя 
[Ci fib]
+11.6 -3.6 34 +13  1011.2  0.3  732  283  +1.8         
09 21.11.17 020 (С) 10 км    3/0 верхняя 
[Ci fib]
+19.5 -8.6 14 +21  1017.6  -2.2  731  276           
12 21.11.17 360 (С) 10 км    4/0 верхняя 
[Ci fib]
+18.9 -6.7 17 +20  1016.9  -0.9  730  276           
15 21.11.17 090 (В) 10 км    ясно 
+6.9 -4.6 44 +7  1017.9  -0.8  729  287    +21.4       
18 21.11.17 080 (В) 10 км    ясно 
+6.6 -8.3 34 +5  1017.1  -0.8  729  287    +21.4       
21 21.11.17 080 (В) 10 км    ясно 
+3.1 -8.3 43 +2  1016.8  -0.9  728  291           
00 22.11.17 070 (В) 10 км    ясно 
+1.5 -9.5 44 -1  1016.1  -0.8  728  292           
03 22.11.17 070 (В) 10 км    ясно 
+0.8 -12.5 36 -1  1016.2  -0.1  727  293           
06 22.11.17 080 (В) 10 км    3/0 верхняя 
[Ci fib]
+13 -8.6 21 +13  1014.1  -0.1  727  281  +0.8         
09 22.11.17 020 (С) 10 км    3/0 верхняя 
[Ci fib]
+21.4 -5.4 16 +21  1010.3  -2.4  726  272           
12 22.11.17 240 (ЮЗ) 4000 м  мгла  5/0 верхняя 
[Ci fib]
+18 -2.2 25 +19  1010.2  -0.4  725  274           
15 22.11.17 тихо ()   4000 м  мгла  6/0 верхняя 
[Ci fib]
+11.2 -3 37 +11  1011  -0.3  725  281    +23.2       
18 22.11.17 130 (ЮВ) 10 км    ясно 
+7.3 -4.4 43 +7  1011.9  0.3  725  285    +23.2       
21 22.11.17 070 (В) 10 км    ясно 
+6 -3.3 51 +5  1012.9  0.5  726  286           
Время (UTC), дата Ветер
(°,м/с) 
Видим.   Явления Облачность Т
(°С)
Тd
(°С)
f(%) Тe
(°С)
Pmin
(гПа)
dP
(гПа)
Po
(мм)
O2
(г/м3)
Тmin Tmax R s Состояние
почвы

Для получения пояснительной информации подведите курсор к названию столбца.

ПОГОДА в Карши - архив

Всё, что Вы хотите узнать о погоде в Карши - удобно и подробно!

Выберите нужную дату (начиная с 1 января 2015* года) и нажмите кнопку "Найти".
Будут отображены архивные сводки погоды по пункту Карши, начиная с указанной даты.


Отображать данные в формате CSV (для использования в таблицах Excel)


Внимание! Наш архив погоды предназначен исключительно для личного некоммерческого использования в познавательных целях. Если Вам необходимы официальные справки о состоянии погоды (для производственных, юридических, коммерческих и т.п. целей), обращайтесь в органы Росгидромета.

*Примечание: данная дата относится к архиву по метеостанциям СССР (Россия, СНГ, Балтия).
Архив по метеостанциям Зарубежной Европы и Азии (кроме Китая) хранится 10 дней, по другим регионам земного шара (Китай, Африка, Америка, Австралия, Океания) - 1 день.

Карши - район местоположения метеостанции


Название, широта, долгота, высота метеостанции:
Карши (аэропорт) 38.8°ш. 65.7°д. 376 м над ур. моря [Узбекистан]

Дополнительная информация

В oтличие oт бoльшинства пoгoдных сайтoв мы публикуем пoдрoбную метеoинфoрмацию в детальнoм прoфессиoнальнoм фoрмате.

Характеристики температуры и влажнoсти вoздуха измеряются на высoте 2 м в тени вдали oт зданий и деревьев.
Скoрoсть ветра измеряется на высoте 10 м (на урoвне рoста челoвека скoрoсть ветра ниже в 1.5-2 раза). Если метеoстанция нахoдится в гoрoде или в лесу, тo скoрoсть ветра занижена на 2-4 м/с пo сравнению с oткрытым местoм. Скoрoсть ветра над акватoриями крупных рек и oзёр, а также на вершинах хoлмoв на 2-5 м/с выше, чем в oбычных услoвиях.
Атмoсфернoе давление в разных тoчках местнoсти мoжет значительнo oтличаться oт давления на метеoстанции, в зависимoсти oт услoвий рельефа (при пoдъёме на 10 м давление пoнижается примернo на 1 мм рт.ст.).